Benson, MN

4:49 AM CST on February 07, 2016 (GMT -0600)
Benson Municipal

Weather History for KBBB - March, 2013

Change the Weather History Date:

Friday, March 15, 2013

  Actual Average Record
Temperature  
Mean Temperature 28 °F -  
Max Temperature 33 °F 38 °F 73 °F (2015)
Min Temperature 24 °F 18 °F -11 °F (1997)
Degree Days  
Heating Degree Days 36    
Moisture  
Dew Point 27 °F    
Average Humidity 90    
Maximum Humidity 100    
Minimum Humidity 81    
Precipitation  
Precipitation 0.03 in - - ()
Sea Level Pressure  
Sea Level Pressure 29.92 in    
Wind  
Wind Speed 7 mph (ENE)    
Max Wind Speed 13 mph    
Max Gust Speed -    
Visibility 6 miles    
Events Snow    
Averages and records for this station are not official NWS values.
T = Trace of Precipitation, MM = Missing Value Source: NWS Daily Summary

Daily Weather History Graph

Daily Weather History Graph

Search for Another Location

Airport or City:

Trip Planner

Search our weather history database for the weather conditions in past years. The results will help you decide how hot, cold, wet, or windy it might be!

Date:

Astronomy

Mar. 15, 2013 Rise Set
Actual Time 7:34 AM CDT 7:28 PM CDT
Civil Twilight 7:05 AM CDT 7:58 PM CDT
Nautical Twilight 6:30 AM CDT 8:32 PM CDT
Astronomical Twilight 5:55 AM CDT 9:07 PM CDT
Moon 9:13 AM CDT (3/15) 11:57 PM CDT (3/15)
Length of Visible Light 12h 53m
Length of Day
11h 54m
Waxing Crescent, 15% of the Moon is Illuminated
Mar 15
Waxing Crescent
Mar 19
First Quarter
Mar 27
Full
Apr 2
Last Quarter
Apr 10
New

Hourly Weather History & Observations

Time (CDT) Temp. Windchill Dew Point Humidity Pressure Visibility Wind Dir Wind Speed Gust Speed Precip Events Conditions
12:12 AM 24.8 °F - 23.0 °F 93% 30.00 in 5.0 mi Calm Calm - N/A   Clear
12:32 AM 24.8 °F 19.1 °F 23.0 °F 93% 30.01 in 5.0 mi NNW 4.6 mph - N/A   Scattered Clouds
12:53 AM 24.8 °F 19.1 °F 24.8 °F 100% 30.00 in 5.0 mi North 4.6 mph - N/A   Scattered Clouds
1:12 AM 26.6 °F 20.0 °F 24.8 °F 93% 29.99 in 7.0 mi North 5.8 mph - N/A   Scattered Clouds
1:33 AM 28.4 °F 20.4 °F 26.6 °F 93% 29.99 in 7.0 mi North 8.1 mph - N/A   Overcast
1:52 AM 28.4 °F 19.7 °F 26.6 °F 93% 30.00 in 7.0 mi North 9.2 mph - N/A Snow Light Snow
2:12 AM 28.4 °F 18.5 °F 26.6 °F 93% 30.01 in 7.0 mi North 11.5 mph - N/A   Mostly Cloudy
2:33 AM 28.4 °F 18.0 °F 26.6 °F 93% 30.02 in 7.0 mi North 12.7 mph - N/A   Mostly Cloudy
2:53 AM 26.6 °F 16.8 °F 24.8 °F 93% 30.01 in 5.0 mi North 10.4 mph - N/A Snow Light Snow
3:12 AM 26.6 °F 16.2 °F 24.8 °F 93% 30.01 in 5.0 mi North 11.5 mph - N/A Snow Light Snow
3:33 AM 26.6 °F 18.2 °F 24.8 °F 93% 29.98 in 5.0 mi NE 8.1 mph - N/A   Overcast
3:52 AM 26.6 °F 19.1 °F 24.8 °F 93% 29.98 in 4.0 mi NNE 6.9 mph - N/A   Mostly Cloudy
4:12 AM 26.6 °F 21.2 °F 26.6 °F 100% 29.97 in 4.0 mi NNE 4.6 mph - N/A   Overcast
4:33 AM 26.6 °F 21.2 °F 26.6 °F 100% 29.96 in 4.0 mi North 4.6 mph - N/A   Overcast
4:52 AM 26.6 °F 20.0 °F 26.6 °F 100% 29.96 in 4.0 mi WNW 5.8 mph - N/A   Overcast
5:13 AM 26.6 °F 20.0 °F 24.8 °F 93% 29.96 in 4.0 mi NNW 5.8 mph - N/A   Overcast
5:33 AM 26.6 °F 19.1 °F 26.6 °F 100% 29.96 in 4.0 mi NNW 6.9 mph - N/A   Overcast
5:52 AM 26.6 °F 19.1 °F 26.6 °F 100% 29.95 in 4.0 mi North 6.9 mph - 0.01 in   Overcast
6:13 AM 28.4 °F 23.3 °F 26.6 °F 93% 29.94 in 4.0 mi NE 4.6 mph - N/A   Overcast
6:33 AM 28.4 °F 20.4 °F 26.6 °F 93% 29.93 in 3.0 mi NE 8.1 mph - N/A   Overcast
6:52 AM 30.2 °F 26.7 °F 28.4 °F 93% 29.95 in 3.0 mi North 3.5 mph - N/A   Overcast
7:13 AM 30.2 °F 25.4 °F 28.4 °F 93% 29.94 in 2.5 mi NE 4.6 mph - N/A   Overcast
7:32 AM 30.2 °F 25.4 °F 30.2 °F 100% 29.93 in 4.0 mi East 4.6 mph - N/A   Overcast
7:52 AM 30.2 °F 25.4 °F 30.2 °F 100% 29.92 in 5.0 mi East 4.6 mph - N/A   Overcast
8:13 AM 30.2 °F 24.3 °F 28.4 °F 93% 29.93 in 5.0 mi ENE 5.8 mph - N/A   Overcast
8:32 AM 32.0 °F 26.4 °F 30.2 °F 93% 29.92 in 5.0 mi ENE 5.8 mph - N/A   Overcast
8:53 AM 32.0 °F 24.8 °F 30.2 °F 93% 29.92 in 5.0 mi East 8.1 mph - N/A   Overcast
9:13 AM 32.0 °F 24.2 °F 28.4 °F 87% 29.92 in 7.0 mi East 9.2 mph - N/A   Overcast
9:32 AM 32.0 °F 24.8 °F 28.4 °F 87% 29.93 in 10.0 mi East 8.1 mph - N/A   Overcast
9:53 AM 32.0 °F 24.2 °F 28.4 °F 87% 29.94 in 7.0 mi East 9.2 mph - N/A   Overcast
10:13 AM 32.0 °F 26.4 °F 28.4 °F 87% 29.95 in 7.0 mi ENE 5.8 mph - N/A   Overcast
10:32 AM 32.0 °F 24.8 °F 28.4 °F 87% 29.94 in 7.0 mi East 8.1 mph - N/A   Overcast
10:53 AM 32.0 °F 24.8 °F 28.4 °F 87% 29.93 in 7.0 mi East 8.1 mph - N/A   Overcast
11:13 AM 33.8 °F 25.8 °F 28.4 °F 81% 29.91 in 7.0 mi ESE 10.4 mph - N/A   Overcast
11:32 AM 33.8 °F 26.4 °F 28.4 °F 81% 29.91 in 7.0 mi East 9.2 mph - N/A   Overcast
11:53 AM 33.8 °F 26.4 °F 28.4 °F 81% 29.91 in 7.0 mi East 9.2 mph - N/A   Overcast
12:12 PM 32.0 °F 26.4 °F 28.4 °F 87% 29.94 in 10.0 mi ENE 5.8 mph - N/A   Overcast
12:33 PM 33.8 °F 28.6 °F 28.4 °F 81% 29.92 in 7.0 mi East 5.8 mph - N/A   Overcast
12:53 PM 33.8 °F 27.0 °F 28.4 °F 81% 29.92 in 10.0 mi East 8.1 mph - N/A   Overcast
1:12 PM 33.8 °F 26.4 °F 28.4 °F 81% 29.91 in 10.0 mi East 9.2 mph - N/A   Overcast
1:33 PM 33.8 °F 25.3 °F 28.4 °F 81% 29.90 in 10.0 mi East 11.5 mph - N/A   Overcast
1:52 PM 33.8 °F 26.4 °F 28.4 °F 81% 29.90 in 10.0 mi ESE 9.2 mph - N/A   Overcast
2:13 PM 33.8 °F 26.4 °F 28.4 °F 81% 29.88 in 10.0 mi ESE 9.2 mph - N/A   Overcast
2:32 PM 33.8 °F 27.0 °F 28.4 °F 81% 29.88 in 7.0 mi ESE 8.1 mph - N/A Snow Light Snow
2:52 PM 33.8 °F 27.0 °F 28.4 °F 81% 29.88 in 10.0 mi ESE 8.1 mph - N/A   Overcast
3:13 PM 33.8 °F 26.4 °F 28.4 °F 81% 29.86 in 5.0 mi ESE 9.2 mph - N/A Snow Light Snow
3:32 PM 32.0 °F 24.8 °F 28.4 °F 87% 29.84 in 4.0 mi ESE 8.1 mph - N/A Snow Light Snow
3:52 PM 32.0 °F 24.2 °F 28.4 °F 87% 29.84 in 5.0 mi ESE 9.2 mph - N/A   Overcast
4:13 PM 32.0 °F 27.5 °F 28.4 °F 87% 29.84 in 5.0 mi ESE 4.6 mph - 0.01 in   Overcast
4:32 PM 32.0 °F 25.6 °F 28.4 °F 87% 29.85 in 10.0 mi East 6.9 mph - 0.01 in   Overcast
4:53 PM 32.0 °F 24.8 °F 28.4 °F 87% 29.83 in 10.0 mi East 8.1 mph - 0.01 in   Overcast
5:12 PM 32.0 °F 24.2 °F 28.4 °F 87% 29.82 in 7.0 mi East 9.2 mph - N/A   Overcast
5:32 PM 32.0 °F 25.6 °F 28.4 °F 87% 29.84 in 7.0 mi ENE 6.9 mph - N/A   Overcast
5:53 PM 30.2 °F 22.6 °F 28.4 °F 93% 29.86 in 10.0 mi NE 8.1 mph - N/A Snow Light Snow
6:13 PM 30.2 °F 22.6 °F 28.4 °F 93% 29.86 in 5.0 mi NE 8.1 mph - N/A Snow Light Snow
6:32 PM 30.2 °F 24.3 °F 28.4 °F 93% 29.86 in 2.5 mi ENE 5.8 mph - N/A Snow Light Snow
6:53 PM 30.2 °F 24.3 °F 28.4 °F 93% 29.86 in 1.8 mi ENE 5.8 mph - 0.01 in Snow Light Snow
7:12 PM 30.2 °F 24.3 °F 28.4 °F 93% 29.85 in 3.0 mi East 5.8 mph - N/A Snow Light Snow
7:32 PM 30.2 °F 23.4 °F 28.4 °F 93% 29.88 in 7.0 mi ENE 6.9 mph - N/A   Overcast
7:53 PM 30.2 °F 24.3 °F 28.4 °F 93% 29.86 in 10.0 mi East 5.8 mph - N/A   Overcast
8:12 PM 30.2 °F 22.6 °F 26.6 °F 86% 29.88 in 10.0 mi East 8.1 mph - N/A   Overcast
8:32 PM 30.2 °F 24.3 °F 26.6 °F 86% 29.89 in 2.5 mi East 5.8 mph - N/A   Overcast
8:53 PM 28.4 °F 21.2 °F 28.4 °F 100% 29.90 in 3.0 mi East 6.9 mph - N/A   Overcast
9:12 PM 28.4 °F 20.4 °F 26.6 °F 93% 29.89 in 3.0 mi East 8.1 mph - N/A   Overcast
9:53 PM 28.4 °F 20.4 °F 26.6 °F 93% 29.92 in 5.0 mi East 8.1 mph - N/A   Overcast
10:12 PM 26.6 °F 16.2 °F 26.6 °F 100% 29.92 in 5.0 mi East 11.5 mph - N/A   Overcast
10:33 PM 26.6 °F 16.8 °F 24.8 °F 93% 29.92 in 7.0 mi East 10.4 mph - N/A   Overcast
10:53 PM 26.6 °F 19.1 °F 24.8 °F 93% 29.93 in 10.0 mi ENE 6.9 mph - N/A   Overcast
11:12 PM 24.8 °F 15.3 °F 23.0 °F 93% 29.93 in 10.0 mi ENE 9.2 mph - N/A   Overcast
11:33 PM 24.8 °F 17.9 °F 21.2 °F 86% 29.95 in 10.0 mi ENE 5.8 mph - N/A   Overcast
11:53 PM 24.8 °F 16.9 °F 21.2 °F 86% 29.95 in 10.0 mi ENE 6.9 mph - N/A   Overcast